This demonstration page uses our WeatherBlox Daily Observations layout. Learn more.

Left ArrowRight Arrow

44.8408, -93.29828

Hourly Observations for May 16, 2021

Temp ( °F °C ) Dew Point ( °F °C ) Humidity (%) Winds ( mph kmh ) Pressure ( in mb ) Visibility ( mi km ) Precip ( " mm )
12:53 am 00:53 Clear 57 13.9 50 10 78 78 ESE 6 9 30.07 1018 10 16 0.00 0.00
1:53 am 01:53 Clear 56 13.3 50 10 81 81 SE 6 9 30.08 1019 10 16 0.00 0.00
2:53 am 02:53 Clear 55 12.8 50 10 83 83 Calm 30.07 1018 9 14 0.00 0.00
3:53 am 03:53 Clear 54 12.2 50 10 87 87 SE 5 7 30.07 1018 7 11 0.00 0.00
4:53 am 04:53 Clear 53 11.7 50 10 89 89 SE 3 6 30.08 1019 7 11 0.00 0.00
5:53 am 05:53 Partly Cloudy with Mist and Fog 52 11.1 50 10 93 93 SSE 6 9 30.07 1018 3 5 0.00 0.00
6:03 am 06:03 Mostly Cloudy with Mist and Fog 52 11.1 51 10.6 97 97 SSE 8 13 30.09 1019 2 3 0.00 0.00
6:12 am 06:12 Cloudy with Mist and Fog 52 11.1 51 10.6 97 97 SE 9 15 30.10 1019 1 2 0.00 0.00
6:25 am 06:25 Cloudy with Mist and Fog 52 11.1 51 10.6 97 97 SE 8 13 30.10 1019 1 1 0.00 0.00
6:39 am 06:39 Cloudy with Fog 52 11.1 52 11.1 100 100 SE 7 11 30.10 1019 0 0 0.00 0.00
6:53 am 06:53 Mostly Cloudy with Fog 52 11.1 52 11.1 100 100 SSE 6 9 30.10 1019 0 0 0.00 0.00
7:20 am 07:20 Mostly Cloudy with Fog 53 11.7 53 11.7 100 100 E 3 6 30.09 1019 0 0 0.00 0.00
7:29 am 07:29 Mostly Cloudy with Fog 53 11.7 53 11.7 100 100 VRB 5 7 30.10 1019 0 0 0.00 0.00
7:38 am 07:38 Cloudy with Mist and Fog 54 12.2 54 12.2 100 100 ESE 7 11 30.09 1019 1 1 0.00 0.00
7:45 am 07:45 Cloudy with Mist and Fog 54 12.2 54 12.2 100 100 ESE 7 11 30.09 1019 2 2 0.00 0.00
7:53 am 07:53 Cloudy with Mist and Fog 54 12.2 54 12.2 100 100 ESE 8 13 30.09 1019 2 3 0.00 0.00
8:41 am 08:41 Cloudy with Mist and Fog 56 13.3 54 12.2 93 93 SSE 8 13 30.12 1020 3 4 0.00 0.00
8:50 am 08:50 Cloudy with Mist and Fog 57 14 54 12 88 88 S 7 11 30.12 1020 3 5 0.00 0.00
8:53 am 08:53 Cloudy with Mist and Fog 57 13.9 54 12.2 90 90 S 10 17 30.12 1020 4 6 0.00 0.00
9:46 am 09:46 Cloudy with Mist and Fog 59 15 55 12.8 87 87 SSE 5 7 30.11 1020 6 10 0.00 0.00
9:53 am 09:53 Cloudy with Haze 59 15 54 12.2 83 83 SSE 7 11 30.12 1020 6 10 0.00 0.00
10:39 am 10:39 Cloudy 61 16.1 54 12.2 78 78 SE 9 15 30.11 1020 8 13 0.00 0.00
10:53 am 10:53 Cloudy 62 16.7 54 12.2 75 75 SSE 9 15 30.12 1020 8 13 0.00 0.00
11:53 am 11:53 Cloudy 64 17.8 54 12.2 70 70 ESE 10 17 30.11 1020 9 14 0.00 0.00
12:53 pm 12:53 Cloudy 67 19.4 55 12.8 66 66 ESE 12 19 30.10 1019 10 16 0.00 0.00
1:28 pm 13:28 Partly Cloudy 69 20.6 55 12.8 61 61 ESE 9 15 30.07 1018 10 16 0.00 0.00
1:53 pm 13:53 Cloudy 70 21.1 55 12.8 59 59 ESE 12 19 30.08 1019 10 16 0.00 0.00
2:53 pm 14:53 Mostly Cloudy 72 22.2 55 12.8 55 55 ESE 10 17 30.06 1018 10 16 0.00 0.00
3:53 pm 15:53 Mostly Cloudy 74 23.3 52 11.1 46 46 SE 12 19 30.05 1018 10 16 0.00 0.00
4:53 pm 16:53 Mostly Cloudy 74 23.3 51 10.6 45 45 SE 10 17 30.04 1017 10 16 0.00 0.00
5:53 pm 17:53 Mostly Cloudy 73 22.8 51 10.6 46 46 SSE 8 13 30.05 1018 10 16 0.00 0.00
6:53 pm 18:53 Mostly Cloudy 72 22.2 51 10.6 48 48 SE 9 15 30.04 1017 10 16 0.00 0.00
7:53 pm 19:53 Mostly Cloudy 71 21.7 51 10.6 49 49 ESE 12 19 30.04 1017 10 16 0.00 0.00
8:53 pm 20:53 Mostly Cloudy 68 20 52 11.1 57 57 SE 8 13 30.05 1018 10 16 0.00 0.00
9:53 pm 21:53 Mostly Cloudy 65 18.3 53 11.7 66 66 SSE 8 13 30.07 1018 10 16 0.00 0.00
10:53 pm 22:53 Partly Cloudy 66 18.9 51 10.6 59 59 SSW 3 6 30.08 1019 10 16 0.00 0.00
11:53 pm 23:53 Mostly Clear 64 17.8 50 10 60 60 S 5 7 30.08 1019 10 16 0.00 0.00

Powered by AerisWeather